Location: La Estación
(39.9833°N, 3.9500°W)
Time: 16:07:53
(UTC+00:00)

BREEZE-M DEB (TANK) - Pass Details

Date: 14 June 2025
Orbit: 310 x 13770 km, 49.5° (Epoch: 19 July)

Event Time Altitude Azimuth Distance (km) Brightness Sun altitude
Rises 22:59:27 0° 218° (SW) 9,910 8.7 -24.2°
Reaches altitude 10° 23:09:08 10° 215° (SW) 6,646 7.7 -24.8°
Enters shadow 23:18:27 29° 202° (SSW) 3,007 5.9 -25.3°
Exits shadow 23:24:56 35° 99° (E) 1,435 4.5 -25.6°
Drops below altitude 10° 23:27:14 10° 72° (ENE) 2,062 5.6 -25.7°
Sets 23:28:41 0° 65° (ENE) 2,653 6.3 -25.7°
